Probability
0 0 0 0 0 0 0 0 0 0 0 0 0 0 0 0 0 0 0 0 0 0 0 0 0 0 0 0 0 0 0 0 0 0 0 0 0 0 1 2 3 3 3
0 0 0 0 0 0 0 0 0 0 0 0 0 0 0 0 0 0 0 0 0 0 0 0 0 0 0 0 0 0 0 0 0 0 0 0 0 1 2 3 4 4 4
0 0 0 0 0 0 0 0 0 0 0 0 0 0 0 0 0 0 0 0 0 0 0 0 0 0 0 0 0 0 0 0 0 0 0 0 0 1 3 4 5 4 5
0 0 0 0 0 0 0 0 0 0 0 0 0 0 0 0 0 0 0 0 0 0 0 0 0 0 0 0 0 0 0 0 0 0 0 0 0 1 2 3 4 4 5
0 0 0 0 0 0 0 0 0 0 0 0 0 0 0 0 0 0 0 0 0 0 0 0 0 0 0 0 0 0 0 1 1 0 0 0 0 0 0 1 2 3 5
0 0 0 0 0 0 0 0 0 0 0 0 0 0 0 0 0 0 0 0 0 0 0 0 0 0 0 0 0 1 1 2 2 1 0 0 0 1 1 1 2 3 4
0 0 0 0 0 0 0 0 0 0 0 0 0 0 0 0 0 0 0 0 0 0 0 0 0 0 0 0 0 1 2 3 3 1 1 0 0 1 2 3 3 3 4
0 0 0 0 0 0 0 0 0 0 0 0 0 0 0 0 0 0 0 0 0 0 0 0 0 0 0 0 0 1 1 2 3 2 1 0 0 1 3 3 3 3 3
0 0 0 0 0 0 0 0 0 0 0 0 0 0 0 0 0 0 0 0 0 0 0 0 0 0 0 0 0 0 0 1 2 2 1 0 0 1 2 2 2 2 1
0 0 0 0 0 0 0 0 0 0 0 0 0 0 0 0 0 0 0 0 0 0 0 0 0 0 0 0 0 0 0 0 1 1 0 0 0 0 1 1 1 1 0
0 0 0 0 0 0 0 0 0 0 0 0 0 0 0 0 0 0 0 0 0 0 0 0 0 0 0 0 0 0 0 0 0 0 0 0 0 0 0 0 0 0 0
0 0 0 0 0 0 0 0 0 0 0 0 0 0 0 0 0 0 0 0 0 0 0 0 0 0 0 0 0 0 0 0 0 0 0 0 0 0 0 0 0 0 0
0 0 0 0 0 0 0 0 0 0 0 0 0 0 0 0 0 0 0 0 0 0 0 0 0 0 0 0 0 0 0 0 0 0 0 0 0 0 0 0 1 1 1
0 0 0 0 0 0 0 0 0 0 0 0 0 0 0 0 0 0 0 0 0 0 0 0 0 0 0 0 0 0 0 0 0 0 0 0 0 0 0 0 1 2 2
0 0 0 0 0 0 0 0 0 0 0 0 0 0 0 0 0 0 0 0 0 0 0 0 0 0 0 0 0 0 0 0 0 0 0 0 0 0 0 0 0 1 2
0 0 0 0 0 0 0 0 0 0 0 0 0 0 0 0 0 0 0 0 0 0 0 0 0 0 0 0 0 0 0 0 0 0 0 0 0 0 0 0 0 0 1
0 0 0 0 0 0 0 0 0 0 0 0 0 0 0 0 0 0 0 0 0 0 0 0 0 0 0 0 0 0 0 0 0 0 0 0 0 0 0 0 0 0 0
0 0 0 0 0 0 0 0 0 0 0 0 0 0 0 0 0 0 0 0 0 0 0 0 0 0 0 0 0 0 0 0 0 0 0 0 0 0 0 0 0 0 0
0 0 0 0 0 0 0 0 0 0 0 0 0 0 0 0 0 0 0 0 0 0 0 0 0 0 0 0 0 0 0 0 0 0 0 0 0 0 0 0 0 0 0
0 0 0 0 0 0 0 0 0 0 0 0 0 0 0 0 0 0 0 0 0 0 0 0 0 0 0 0 0 0 0 0 0 0 0 0 0 0 0 0 0 0 0
0 0 0 0 0 0 0 0 0 0 0 0 0 0 0 0 0 0 0 0 0 0 0 0 0 0 0 0 0 0 0 0 0 0 0 0 0 0 0 0 0 0 0
0 0 0 0 0 0 0 0 0 0 0 0 0 0 0 0 0 0 0 0 0 0 0 0 0 0 0 0 0 0 0 0 0 0 0 0 0 0 0 0 0 0 0
0 0 0 0 0 0 0 0 0 0 0 0 0 0 0 0 0 0 0 0 0 0 0 0 0 0 0 0 0 0 0 0 0 0 0 0 0 0 0 0 0 0 0
0 0 0 0 0 0 0 0 0 0 0 0 0 0 0 0 0 0 0 0 0 0 0 0 0 0 0 0 0 0 0 0 0 0 0 0 0 0 0 0 0 0 0
0 0 0 0 0 0 0 0 0 0 0 0 0 0 0 0 0 0 0 0 0 0 0 0 0 0 0 0 0 0 0 0 0 0 0 0 0 0 0 0 0 0 0
0 0 0 0 0 0 0 0 0 0 0 0 0 0 0 0 0 0 0 0 0 0 0 0 0 0 0 0 0 0 0 0 0 0 0 0 0 0 0 0 0 0 0
Wind_Speed
1 1 1 1 2 1 2 2 3 4 3 4 4 4 3 3 3 2 2 6 7 7 7 7 7 7 7 8 8 8 7 7 7 6 6 6 5 4 2 1 2 2 2
2 2 2 2 2 2 2 3 3 3 3 3 4 4 3 3 3 3 2 3 6 6 7 7 8 8 8 8 8 8 8 8 7 7 6 6 6 5 3 2 2 2 2
3 3 3 3 3 2 3 3 4 3 3 4 4 3 3 3 3 3 3 2 3 5 7 7 8 8 9 9 9 9 8 8 7 7 7 7 7 5 3 2 2 2 3
4 4 3 3 3 3 3 3 3 3 3 3 3 3 3 3 3 3 2 2 2 3 5 8 8 9 9 9 9 9 8 8 8 8 8 7 7 6 5 4 2 2 3
5 4 3 3 3 3 3 3 3 3 3 3 3 3 3 3 3 4 3 3 3 3 3 5 8 9 10 11 10 9 8 8 8 8 8 8 7 6 6 5 3 3 3
5 4 3 4 4 4 4 3 4 3 2 2 4 4 4 3 3 4 3 3 3 3 3 4 4 6 10 11 12 11 8 8 8 8 8 8 7 6 6 6 5 5 5
4 4 3 4 4 3 3 3 3 4 3 2 4 4 4 4 4 4 3 3 4 4 4 4 3 3 4 10 12 12 10 9 9 8 8 8 7 6 7 7 7 6 5
4 4 4 3 3 3 4 4 3 2 2 3 3 3 3 4 4 4 3 3 3 3 3 4 4 4 3 3 7 12 12 11 10 9 9 9 9 8 7 7 7 6 6
3 3 3 3 3 3 3 3 3 3 2 2 2 3 3 1 2 3 3 3 3 3 2 2 3 3 3 3 4 7 11 10 10 10 10 9 9 8 7 6 6 6 5
2 3 3 3 3 2 3 2 3 2 3 1 2 2 2 3 2 1 3 3 3 3 2 2 2 3 3 2 4 7 9 10 10 10 9 9 9 8 7 6 5 5 5
1 2 3 3 3 2 2 3 3 3 2 2 1 1 2 2 2 3 1 3 3 3 2 2 1 2 2 2 2 4 7 8 9 9 9 9 9 7 7 6 6 5 4
1 1 2 3 3 2 2 2 2 3 2 2 2 2 2 2 1 2 1 1 2 3 3 2 2 2 2 2 3 5 5 6 7 8 8 8 8 8 7 7 6 6 5
1 1 2 2 2 2 2 2 2 2 2 2 2 1 1 1 2 2 2 1 1 2 3 2 2 2 2 2 3 5 4 5 5 6 7 7 8 8 7 7 7 6 6
3 2 2 2 2 2 2 2 2 1 2 2 2 2 1 1 1 2 3 2 1 2 2 3 2 2 2 2 3 4 3 4 5 5 5 6 7 7 6 5 5 6 6
3 3 3 3 2 2 2 2 2 1 2 2 1 1 1 1 1 1 2 3 3 1 2 3 2 3 2 2 3 2 2 3 4 4 5 5 6 6 6 5 5 5 5
3 4 3 3 2 2 2 2 2 1 2 1 1 1 1 1 1 1 1 1 2 3 2 2 2 3 3 2 3 3 2 4 4 4 5 5 5 5 5 5 5 5 5
4 4 4 3 3 2 2 2 2 2 2 1 1 1 1 1 1 1 1 1 1 2 1 2 2 2 2 2 3 3 2 2 3 4 5 4 4 4 4 5 5 5 5
4 4 4 3 3 2 2 3 2 2 2 1 0 1 0 1 1 1 1 1 0 1 2 2 3 2 2 2 2 3 3 2 2 4 5 5 5 5 5 4 4 5 5
3 3 3 4 3 3 3 3 3 2 2 2 1 1 1 1 0 0 0 0 0 0 1 1 2 2 2 2 2 3 3 3 3 3 4 4 5 5 5 5 5 5 5
4 3 3 3 3 3 3 3 3 2 2 1 1 1 1 2 2 2 1 1 1 1 1 0 1 2 2 3 2 2 3 3 3 3 4 4 5 6 7 6 6 6 6
4 4 3 3 2 2 2 3 3 3 2 1 0 0 1 2 3 2 1 2 2 1 0 0 1 2 2 2 2 2 3 3 3 2 2 3 3 3 4 6 7 8 8
3 3 3 3 2 2 3 5 4 3 2 2 1 1 1 1 1 1 1 2 3 2 2 1 1 2 3 3 2 2 2 2 4 3 1 3 2 3 3 3 7 9 9
3 3 3 3 3 2 3 4 5 3 2 2 1 1 1 1 1 0 1 1 1 2 2 3 3 4 4 4 2 2 2 2 4 3 1 3 2 3 4 4 8 9 10
4 3 3 3 2 1 3 4 5 3 2 1 1 1 1 2 1 1 0 1 2 3 3 2 3 4 4 4 3 3 3 3 3 3 1 3 3 3 4 4 8 9 9
3 3 3 3 3 1 2 3 4 2 1 1 1 1 1 2 3 1 0 1 3 4 4 4 4 4 5 5 2 0 1 2 3 3 1 2 3 4 4 4 5 8 8
3 3 3 2 3 2 2 3 4 2 1 1 1 2 3 3 3 2 1 1 2 4 3 3 4 5 4 5 5 2 2 2 2 4 2 1 2 2 4 3 3 4 4
Wind_Direction
80 63 42 29 28 36 53 53 52 53 51 55 68 80 84 86 84 74 60 78 73 68 65 60 56 50 46 40 35 30 26 23 15 9 0 355 352 2 1 100 131 138 169
82 74 57 40 31 37 51 64 63 64 53 60 61 67 80 84 80 73 60 62 61 56 54 52 48 46 43 36 30 24 23 22 18 13 7 358 358 5 23 61 93 107 125
71 74 62 43 34 43 53 57 54 53 53 55 53 56 67 65 76 83 72 55 39 45 46 44 43 38 36 31 26 21 21 22 19 15 13 11 8 12 31 53 80 105 102
72 73 64 46 38 48 52 60 53 53 46 49 49 47 53 56 60 80 77 58 41 34 37 43 42 37 32 27 22 19 18 20 21 19 18 17 18 26 41 48 65 103 112
65 75 66 49 51 55 47 59 54 62 60 51 57 51 43 51 49 72 68 56 51 44 32 37 39 37 33 27 19 14 12 18 21 22 21 19 21 30 38 44 64 88 102
64 72 69 54 55 58 46 50 56 48 58 55 66 53 35 32 39 51 56 53 50 49 45 38 25 26 30 27 20 17 18 23 24 25 24 19 23 36 44 50 65 81 86
66 71 72 59 59 65 59 57 63 53 37 43 67 39 18 26 34 30 30 44 44 43 48 41 34 26 17 24 20 22 26 28 27 26 27 23 29 47 57 55 58 68 74
65 82 82 76 70 72 56 48 58 66 33 37 91 85 32 6 1 14 16 35 32 32 42 47 44 40 29 16 16 25 26 27 29 29 31 31 38 52 58 58 57 57 60
69 78 86 87 78 80 74 58 68 84 66 24 58 123 129 185 321 341 4 16 13 22 21 29 43 36 32 23 9 18 25 24 30 34 35 36 39 43 47 52 53 52 49
68 80 89 93 91 86 86 69 77 87 96 55 14 42 116 148 140 349 338 349 1 17 8 25 28 21 22 16 15 21 26 24 28 30 31 32 34 35 37 39 43 46 47
44 82 93 99 99 92 92 82 76 75 88 103 79 55 61 62 87 126 310 326 342 338 345 350 357 6 4 2 356 15 25 24 25 26 25 25 24 27 31 32 32 35 37
355 73 102 102 104 103 106 101 94 89 87 88 83 80 103 107 111 119 142 292 316 314 336 344 346 337 338 344 348 9 18 23 23 22 21 19 18 19 19 20 21 26 26
205 190 132 120 113 121 117 105 95 85 89 93 95 94 102 130 157 141 129 151 324 314 334 335 324 325 334 342 336 353 7 15 18 19 20 18 15 14 14 14 15 16 13
198 184 161 151 144 138 121 106 93 90 88 89 85 91 90 65 118 141 149 140 65 343 339 314 321 323 326 331 334 349 356 7 9 12 16 14 12 10 10 11 11 11 4
192 175 166 159 153 144 135 124 104 101 94 85 85 86 86 25 58 100 134 147 143 134 301 297 309 314 320 319 329 345 339 349 360 3 5 10 9 8 12 13 12 11 6
181 167 166 162 159 154 144 125 118 110 97 77 92 84 65 33 47 59 98 117 141 153 216 272 273 289 313 327 341 342 334 339 347 351 358 1 3 6 9 7 6 6 3
169 167 166 161 161 159 146 133 135 129 114 76 58 104 80 83 70 45 68 85 105 135 179 282 286 304 321 324 328 334 333 331 327 331 334 341 345 346 350 352 355 353 350
170 171 162 159 168 166 157 152 147 138 138 141 153 102 287 92 69 52 79 76 105 160 162 272 306 318 310 303 305 314 322 326 310 316 321 330 336 335 330 328 329 331 329
168 164 158 164 174 171 165 165 159 156 159 176 177 168 195 140 141 281 122 127 286 11 130 194 293 305 307 319 333 324 327 324 309 313 317 320 321 322 317 310 310 310 308
162 163 162 165 169 164 161 164 160 160 164 188 194 184 190 177 192 204 194 201 165 55 33 11 305 311 308 313 340 328 326 322 314 319 322 313 310 312 312 302 299 299 296
163 160 151 151 154 154 172 169 168 162 158 164 245 252 232 211 201 195 185 191 158 136 76 345 304 318 314 319 304 294 303 308 308 306 315 313 315 312 307 301 295 294 293
160 147 151 151 148 167 170 166 157 150 151 156 197 266 280 276 274 249 229 191 170 168 195 210 253 267 275 271 278 289 298 330 312 303 319 301 303 294 288 281 290 292 294
158 151 160 153 161 184 162 160 159 145 151 166 181 214 288 317 322 298 309 321 293 277 211 194 217 241 252 252 257 285 270 255 260 277 316 295 296 288 282 290 299 297 296
161 162 164 167 167 198 174 166 164 142 135 154 175 197 226 281 269 216 175 336 304 297 276 247 226 241 247 245 224 235 248 270 280 283 241 282 295 285 293 293 299 302 301
165 165 162 165 170 216 180 166 150 134 136 206 237 236 231 241 267 245 142 276 302 304 303 300 286 291 298 299 286 343 329 328 303 293 260 250 286 294 294 291 297 305 303
167 159 154 165 171 186 175 168 150 138 151 244 293 290 275 261 268 250 204 222 273 284 305 326 328 325 315 310 307 251 222 248 276 290 281 249 285 313 308 292 297 306 309